Погода в Чуприяновке

Россия / Тверская область     56°45′24″N   36°02′26″E
темп.,
°C
ветер,
м/с
пор.,
м/с
влажн.,
%
обл.,
%
осадки,
мм/ч
давл.,
гПа
погр.,
м
25 июня, сб
сб2500:00+16зюз11775 0.0 101811
03:00+15ссв11815 0.0 101911
06:00+17св12805 0.0 101986
09:00+22св22615 0.0 1020481
12:00+26всв23485 0.0 10201399
15:00+27всв12443 0.0 10191622
18:00+27св02480 0.0 10191465
21:00+21св00695 0.0 102011
26 июня, вс
вс2600:00+18ююз11771 0.0 102111
03:00+17з228215 0.0 102215
06:00+19зсз238270 0.0 1022102
09:00+24зсз23645 0.0 1022408
12:00+28сз22515 0.0 10221243
15:00+30сз23455 0.0 10211657
18:00+30сз13525 0.0 10201673
21:00+24юз22670 0.0 102012
27 июня, пн
пн2700:00+21з22810 0.0 102119
03:00+20сз35820 0.0 102169
06:00+20сз36810 0.0 1022159
09:00+25сз34644 0.0 1021468
12:00+29сз57470 0.0 10211790
15:00+30ссз46420 0.0 10202222
18:00+28ссз47523 0.0 1020759
21:00+22ссз22675 0.0 102021
28 июня, вт
вт2800:00+19с227025 0.0 102126
03:00+17св34885 0.0 102275
06:00+18всв4884100 0.0 1023286
09:00+21всв455785 0.0 1024626
12:00+23св4446100 0.0 10251116
15:00+24св443940 0.0 10241489
18:00+22всв45484 0.0 1023734
21:00+15всв37670 0.0 1025130
29 июня, ср
ср2900:00+12всв36650 0.0 102695
03:00+10всв22760 0.0 102736
06:00+12всв25760 0.0 1027135
09:00+18всв35520 0.0 1027725
12:00+21всв34390 0.0 10271500
15:00+22всв34350 0.0 10261684
18:00+22св22440 0.0 10251303
21:00+15всв22635 0.0 102616